Location: Newark
(35.8833°N, 14.5000°E)
Time: 19:26:57
(UTC+00:00)

BEESAT - Pass Details

Date: 14 November 2019
Orbit: 700 x 709 km, 98.6° (Epoch: 05 December)

Event Time Altitude Azimuth Distance (km) Brightness Sun altitude
Rises 03:18:55 0° 154° (SSE) 3,078 ? -28.0°
Reaches altitude 10° 03:21:12 10° 149° (SSE) 2,163 ? -27.5°
Maximum altitude 03:25:48 53° 73° (ENE) 861 ? -26.6°
Enters shadow 03:29:06 19° 2° (N) 1,667 ? -25.9°
